Regional Weather Roundup
Issued by NWS Kansas City/Pleasant Hill, MO

Home | Current Version | Previous Version | Text Only | Print | Product List | Glossary On
Versions: 1 2 3 4 5 6 7 8 9 10 11 12 13 14 15 16 17 18 19 20 21 22 23 24 25 26 27
000
ASUS43 KEAX 241310
RWREAX

WEATHER ROUNDUP FOR EASTERN KANSAS AND NORTHWEST MISSOURI
NATIONAL WEATHER SERVICE KANSAS CITY/PLEASANT HILL MO
800 AM CDT TUE APR 24 2018

KSZ040-057-103>105-MOZ028-029-037-043-241400-
...KANSAS CITY METROPOLITAN AREA...

CITY           SKY/WX    TMP DP  RH WIND       PRES   REMARKS
K.C. INTL      MOSUNNY   52  35  52 N7        30.11R
K.C. DOWNTOWN  SUNNY     49  39  68 CALM      30.11R
LEES SUMMIT    SUNNY     52  36  54 CALM      30.10R
OLATHE - IXD   SUNNY     51  40  65 NW7       30.13R
OLATHE - OJC   SUNNY     54  33  45 N5        30.10R
LAWRENCE       SUNNY     46  40  79 NW3       30.12R

$$

MOZ001>008-011>017-020>025-030>033-038>040-044>046-053-054-241400-
...NORTHERN AND CENTRAL MISSOURI...

CITY           SKY/WX    TMP DP  RH WIND       PRES   REMARKS
ST. JOSEPH     SUNNY     44  36  73 CALM      30.13R
MOSBY          SUNNY     45  37  76 CALM      30.10S
WARRENSBURG    SUNNY     50  34  53 NW3       30.10R
WHITEMAN AFB   SUNNY     50  34  53 N6        30.05R
CLINTON        SUNNY     50  39  66 N3        30.09S
SEDALIA        SUNNY     52  39  61 N6        30.09S
WARSAW         NOT AVBL
CHILLICOTHE      N/A     51  32  48 N5        30.11R
KIRKSVILLE     SUNNY     51  41  68 N6        30.11R

$$

MOZ041-047>049-056>058-063>065-088>090-097-241400-
...EASTERN AND SOUTHERN MISSOURI...

CITY           SKY/WX    TMP DP  RH WIND       PRES   REMARKS
ST. LOUIS INTL DRIZZLE   56  55  97 N10       30.03R FOG
SPIRIT OF STL  CLOUDY    57  54  89 NW8       30.02R
COLUMBIA       PTSUNNY   54  50  86 N6        30.08R
JEFFERSON CITY PTSUNNY   52  46  80 W7        30.08R
ROLLA          CLOUDY    55  51  86 N7        30.06R
OSAGE BEACH    PTSUNNY   50  48  93 W3        30.09R
SPRINGFIELD    SUNNY     51  43  74 N5        30.07R
BRANSON        SUNNY     54  45  71 CALM      30.07R
JOPLIN         SUNNY     52  44  74 CALM      30.10R
WEST PLAINS    CLOUDY    56  51  84 N9        30.04R

$$

IAZ060-094-KSZ022-034>040-054-083-096-NEZ052-066-093-241400-
...KANSAS...SOUTHEAST NEBRASKA AND IOWA...

CITY           SKY/WX    TMP DP  RH WIND       PRES   REMARKS
TOPEKA         SUNNY     47  44  90 CALM      30.13R
MANHATTAN      SUNNY     45  40  82 CALM      30.14R
EMPORIA        SUNNY     49  41  74 NW3       30.13R
CHANUTE        SUNNY     51  43  74 CALM      30.12R
WICHITA        MOSUNNY   51  45  79 NW5       30.13R
OMAHA          MOSUNNY   46  38  73 NW3       30.14R
LINCOLN        SUNNY     44  34  67 N3        30.16R
FALLS CITY     SUNNY     45  36  70 NW3       30.13R
LAMONI         SUNNY     50  33  52 NE6       30.11R
DES MOINES     CLOUDY    51  39  63 CALM      30.12R

$$





USA.gov is the U.S. government's official web portal to all federal, state and local government web resources and services.